CZ-6A DEB, 55535

Orbit data source: Space-Track

CZ-6A DEB, 55535 is space debris in SSO originally from a launch on Fri, 11 Nov 2022 UTC launched from the Taiyaun Space Center, China (TSC). Debris objects in space refer to the collection of defunct objects orbiting the Earth. Examples of debris include non-operational satellites, rocket bodies, and fragments generated from explosions, collisions, or faulty payload assembly.

Loading next visibility...
Identifier
55535, 2022-151YH
Orbit
SSO
Country
Flag of CNCN / PRC
Related business
Manufacturer
SAST
Mission
Spacecraft
Bus & Motor
Unknown
Mass
Unknown
Launch date (UTC)
2022-11-11 (3 years ago)
Launch vehicle
Unknown
Launch site
Taiyaun Space Center, China (TSC)
Object type
Payload
Rocket body
Debris
Shape & HBR
Unknown shape, 0.1 m
Radar Cross Section
Small (<0.1 m²)

Expand to show TLE details & history
Last TLE update: 19 hours ago

TLE from 19 hours ago
0 CZ-6A DEB
1 55535U 22151YH  26130.16757039  .00007412  00000-0  11203-2 0  9997
2 55535  98.6298 197.3877 0072212  34.2305 326.3525 14.72808444179599
Epoch: 2026-05-10T04:01Z
TLE epoch observation values (Epoch: 2026-05-10T04:01:18.081Z)
Latitude
-0.00001°
Longitude
-90.91217°
Altitude
612.949 km
Speed
7.575 km/s
True Right ascension
13h 09m 33s
True Declination
0° 00' 00"
Sunlit
Object was in full shadow at epoch
Visualization orbit readout
Latitude
Unknown
Longitude
Unknown
Altitude
Unknown
Speed
Unknown
Apparent Right ascension
Unknown
Apparent Declination
Unknown
Sunlit
N/A
Visualization observer readout
Local Sidereal Time
07:23:30
Azimuth
Unknown
Elevation
Unknown
Doppler factor
Unknown
Orbital elements
Apogee altitude
699.947 km
Perigee altitude
598.455 km
Semi-major axis
7,027.338 km
Eccentricity
0.00722
Inclination
98.6298°
RAAN
197.3877°
Arg. of periapsis
34.2305°
True anomaly
325.89054°
Mean anomaly
326.3525°
Eccentric anomaly
326.12187°
Mean motion
3.68432 °/min
Orbital period
97.71 mins
BSTAR
0.0011203
Loading maneuver chart data...
Computing Atmospheric mass density...
Loading historical data...
Loading historical data...
Loading historical data...
Loading historical data...
Loading historical data...
Loading historical data...
Loading historical data...

Documentation

Showing up to 5 results
|